KG6TDA Newport NC US current weather conditions

sailwx.info

Wind from 309

Air temperature 23.9° C
Dewpoint 15.4° C

Last reported at 2020-Oct-01 14:46 UTC.
Time now 2020-Oct-01 15:57 UTC

Location: N 34°47' W 076°52'.
View on Google Maps.

See reports from other nearby stations

  
Tides and Currents Weather Stations Pressure Air Temp Water Temp Dewpoint Dewpoint Depression Visibility Wind Speed Wind Dir Waves Ship Positions
date/time (UTC)wind fromknots sea level pressurealtimeterstation pressurevisibilityair tempwater tempwave heightnotes
2020-Oct-01 14:46 309 23.9
2020-Oct-01 14:31 311 23.3
2020-Oct-01 14:16 311 22.8
2020-Oct-01 14:00 311 21.7
2020-Oct-01 13:31 311 20.0
2020-Oct-01 13:16 311 18.9
2020-Oct-01 12:48 311 15.0
2020-Oct-01 12:31 311 14.4
2020-Oct-01 12:16 311 13.3
2020-Oct-01 11:47 311 11.7
2020-Oct-01 11:31 311 11.1
2020-Oct-01 11:16 311 11.1
2020-Oct-01 10:46 311 11.1
2020-Oct-01 10:32 311 11.7
2020-Oct-01 10:16 311 11.7
2020-Oct-01 09:46 311 11.7
2020-Oct-01 09:31 311 11.7
2020-Oct-01 09:16 311 11.7
2020-Oct-01 08:46 311 11.7
2020-Oct-01 08:16 311 11.7
2020-Oct-01 07:46 311 11.7
2020-Oct-01 07:31 311 11.7
2020-Oct-01 07:16 311 12.2
2020-Oct-01 06:47 311 12.2
2020-Oct-01 06:33 311 12.2
2020-Oct-01 06:16 311 12.2
2020-Oct-01 05:46 311 12.8
2020-Oct-01 05:33 311 12.8
2020-Oct-01 05:16 311 12.8
2020-Oct-01 04:46 311 12.8
2020-Oct-01 04:32 311 12.8
2020-Oct-01 04:16 311 12.8
2020-Oct-01 03:47 311 13.3
2020-Oct-01 03:32 311 13.3
2020-Oct-01 03:17 311 13.3
2020-Oct-01 02:46 311 13.9
2020-Oct-01 02:31 311 13.9
2020-Oct-01 02:16 311 14.4
2020-Oct-01 01:46 311 14.4
2020-Oct-01 01:31 311 14.4
2020-Oct-01 01:15 311 14.4
2020-Oct-01 00:46 311 15.0
2020-Oct-01 00:31 311 15.6
2020-Oct-01 00:16 311 15.6
2020-Sep-30 23:46 311 16.1
2020-Sep-30 23:33 311 16.7
2020-Sep-30 23:16 311 17.2
2020-Sep-30 22:46 311 19.4
2020-Sep-30 22:32 311 20.6
2020-Sep-30 22:16 311 21.7
2020-Sep-30 21:47 311 22.2
2020-Sep-30 21:31 313 22.2
2020-Sep-30 21:16 304 22.8
2020-Sep-30 20:47 336 22.8
2020-Sep-30 20:31 296 22.8
2020-Sep-30 20:18 289 0 gusting 2 22.8
2020-Sep-30 19:46 311 22.8
2020-Sep-30 19:31 311 22.8
2020-Sep-30 19:16 323 0 gusting 2 22.8
2020-Sep-30 18:46 297 22.8
2020-Sep-30 18:31 317 22.8
2020-Sep-30 18:16 308 22.8
2020-Sep-30 17:46 259 22.2
2020-Sep-30 17:31 319 21.7
2020-Sep-30 17:17 297 21.7
2020-Sep-30 16:47 327 0 gusting 3 22.2
2020-Sep-30 16:31 345 22.2
2020-Sep-30 16:16 319 0 gusting 2 21.7
2020-Sep-30 15:46 309 1 gusting 3 21.1
2020-Sep-30 15:32 333 0 gusting 3 21.1
2020-Sep-30 15:16 317 21.1
2020-Sep-30 14:46 326 0 gusting 3 20.0
2020-Sep-30 14:30 321 1 gusting 3 20.0
2020-Sep-30 14:16 334 1 gusting 3 19.4
2020-Sep-30 13:46 308 0 gusting 3 18.9
2020-Sep-30 13:30 321 0 gusting 2 18.3
2020-Sep-30 13:16 334 0 gusting 3 17.8
2020-Sep-30 12:45 252 0 gusting 3 17.2
2020-Sep-30 12:31 274 16.7
2020-Sep-30 12:15 297 16.7
2020-Sep-30 11:47 332 16.1
2020-Sep-30 11:32 332 16.7
2020-Sep-30 11:17 332 16.7
2020-Sep-30 11:02 305 16.7
2020-Sep-30 10:47 282 0 gusting 2 17.2
2020-Sep-30 10:32 300 17.2
2020-Sep-30 10:16 311 0 gusting 3 17.8
2020-Sep-30 10:01 314 1 gusting 3 17.8
2020-Sep-30 09:47 304 18.3
2020-Sep-30 09:31 303 18.3
2020-Sep-30 09:16 286 18.3
2020-Sep-30 09:00 292 18.9
2020-Sep-30 08:45 299 18.9
2020-Sep-30 08:30 288 19.4
2020-Sep-30 08:15 300 19.4
2020-Sep-30 08:00 299 20.0
2020-Sep-30 07:45 299 20.0
2020-Sep-30 07:30 299 20.0
2020-Sep-30 07:16 132 20.0
2020-Sep-30 07:00 132 20.0
2020-Sep-30 06:45 132 20.0
2020-Sep-30 06:31 132 20.0
2020-Sep-30 06:15 132 20.0
2020-Sep-30 06:00 132 20.0
2020-Sep-30 05:45 131 20.0
2020-Sep-30 05:30 316 20.0
2020-Sep-30 05:15 316 20.0
2020-Sep-30 05:00 316 20.0
2020-Sep-30 04:46 316 20.6
2020-Sep-30 04:30 316 20.6
2020-Sep-30 04:15 316 20.6
2020-Sep-30 04:01 316 20.6
2020-Sep-30 03:46 300 21.1
2020-Sep-30 03:31 314 1 gusting 4 21.7
2020-Sep-30 03:16 283 4 gusting 9 23.3
2020-Sep-30 03:01 049 3 gusting 11 25.6
2020-Sep-30 02:46 233 1 gusting 10 25.6
2020-Sep-30 02:31 132 2 gusting 7 25.6
2020-Sep-30 02:16 034 0 gusting 8 25.6
2020-Sep-30 02:02 245 3 gusting 9 25.6
2020-Sep-30 01:47 094 0 gusting 6 25.0
2020-Sep-30 01:31 226 1 gusting 6 25.0
2020-Sep-30 01:16 139 25.0
2020-Sep-30 01:01 123 1 gusting 6 25.0
2020-Sep-30 00:47 121 0 gusting 7 25.0
2020-Sep-30 00:31 054 2 gusting 6 25.0
2020-Sep-30 00:16 185 1 gusting 8 24.4
2020-Sep-30 00:02 132 1 gusting 7 24.4
2020-Sep-29 23:46 153 2 gusting 6 24.4
2020-Sep-29 23:31 042 0 gusting 6 24.4
2020-Sep-29 23:17 165 1 gusting 8 24.4
2020-Sep-29 23:01 070 0 gusting 5 24.4
2020-Sep-29 22:46 051 0 gusting 6 24.4
2020-Sep-29 22:31 169 24.4
2020-Sep-29 22:16 153 0 gusting 5 24.4
2020-Sep-29 22:00 011 0 gusting 4 24.4
2020-Sep-29 21:45 133 1 gusting 6 25.0
2020-Sep-29 21:31 169 0 gusting 5 25.0
2020-Sep-29 21:16 136 25.0
2020-Sep-29 21:00 149 0 gusting 4 25.0
2020-Sep-29 20:46 176 0 gusting 3 24.4
2020-Sep-29 20:31 133 0 gusting 4 24.4
2020-Sep-29 20:16 153 0 gusting 6 24.4
2020-Sep-29 20:01 140 0 gusting 7 24.4
2020-Sep-29 19:45 079 24.4
2020-Sep-29 19:31 142 1 gusting 6 24.4
2020-Sep-29 19:16 124 1 gusting 8 24.4
2020-Sep-29 19:00 197 0 gusting 8 25.0
2020-Sep-29 18:45 153 0 gusting 9 25.6
2020-Sep-29 18:30 152 2 gusting 10 26.1
2020-Sep-29 18:16 139 1 gusting 10 26.7
2020-Sep-29 18:00 297 2 gusting 10 27.2
2020-Sep-29 17:45 161 2 gusting 7 26.7
2020-Sep-29 17:30 125 1 gusting 6 27.2
2020-Sep-29 17:15 103 1 gusting 8 26.7
2020-Sep-29 17:00 105 3 gusting 9 26.1
2020-Sep-29 16:47 203 1 gusting 6 26.1
2020-Sep-29 16:32 150 1 gusting 5 25.0
2020-Sep-29 16:17 167 0 gusting 3 24.4
2020-Sep-29 16:02 112 24.4
2020-Sep-29 15:46 177 0 gusting 4 23.9
2020-Sep-29 15:31 071 23.3
2020-Sep-29 15:16 065 22.8
2020-Sep-29 15:02 044 22.8